Volver al catálogo

STARLINK-37234

ActivoComunicacionesVLEO
NORAD 68535·PAYLOAD·🇺🇸 United States

Lanzado Mar 30, 2026 desde Cape Canaveral Space Force Station

Loading…

Próximos Pases (próximas 24 horas)

TLE

ActualizadoSource: CelesTrak SupGP

Época: Sep 14, 2026, 22:49 UTC

1 68535C 26068AD  26257.95118056  .00027057  00000+0  79969-3 0  2576
2 68535  53.1572 320.0069 0001200  89.7622 301.6619 15.34366262    14

Sigue STARLINK-37234 en tiempo real con AllMySat

Download on the App Store